FENGYUN 1C DEB, 29809

Orbit data source: Space-Track

FENGYUN 1C DEB, 29809 is space debris in SSO originally from a launch on Mon, 10 May 1999 UTC launched from the Taiyaun Space Center, China (TSC). Fengyun 1C debris stems from the Chinese weather satellite Fengyun-1C, which was intentionally destroyed by a Chinese anti-satellite missile in 2007. This event dramatically increased the amount of space debris, with thousands of trackable fragments posing hazards to satellites and human spaceflight. The Fengyun 1C debris cloud has become a focal point in discussions about space sustainability and the need for international regulations to prevent the creation of new debris.

Loading next visibility...
Identifier
29809, 1999-025DB
Orbit
SSO
Country
Flag of CNCN / PRC
Related business
Manufacturer
Unknown
Mission
Spacecraft
Bus & Motor
Unknown
Mass
Unknown
Launch date (UTC)
1999-05-10 (27 years ago)
Launch vehicle
Unknown
Launch site
Taiyaun Space Center, China (TSC)
Object type
Payload
Rocket body
Debris
Shape & HBR
Unknown shape, 0.1 m
Radar Cross Section
Medium (>0.1 m² and <1 m²)

Expand to show TLE details & history
Last TLE update: 1 day ago

TLE from 1 day ago
0 FENGYUN 1C DEB
1 29809U 99025DB  26206.42583925  .00001056  00000-0  28019-3 0  9992
2 29809  98.8854 185.7179 0116224  36.8145 115.2106 14.47037689 27164
Epoch: 2026-07-25T10:13Z
TLE epoch observation values (Epoch: 2026-07-25T10:13:12.511Z)
Latitude
26.46755°
Longitude
-86.28219°
Altitude
774.586 km
Speed
7.45 km/s
True Right ascension
00h 40m 37s
True Declination
26° 19' 51"
Sunlit
Object was in daylight at epoch
Visualization orbit readout
Latitude
Unknown
Longitude
Unknown
Altitude
Unknown
Speed
Unknown
Apparent Right ascension
Unknown
Apparent Declination
Unknown
Sunlit
N/A
Visualization observer readout
Local Sidereal Time
00:10:02
Azimuth
Unknown
Elevation
Unknown
Doppler factor
Unknown
Orbital elements
Apogee altitude
815.113 km
Perigee altitude
649.828 km
Semi-major axis
7,110.608 km
Eccentricity
0.01162
Inclination
98.8854°
RAAN
185.7179°
Arg. of periapsis
36.8145°
True anomaly
116.40807°
Mean anomaly
115.2106°
Eccentric anomaly
115.81008°
Mean motion
3.61979 °/min
Orbital period
99.45 mins
BSTAR
0.00028019
Loading maneuver chart data...
Computing Atmospheric mass density...

Documentation

Showing up to 5 results
|